FW0743 Weather Reports


time (UTC)temp
C
wind
direction
speed
KPH
gust
KPH
rain 1hr
cm
rain 24hr
cm
rain mn
cm
humidity
%
barometer
mb
20260903060027 17 221 0.0 3.2 0.00 1.02 0.00 98 1013.9
20260903054527 17 221 0.0 1.6 0.00 1.02 0.00 98 1013.8
20260903053036 18 212 1.6 6.4 0.00 1.02 0.00 98 1013.7
20260903051518 18 182 3.2 8.0 0.00 1.02 0.00 98 1013.7
20260903050038 18 172 3.2 8.0 0.00 1.02 0.00 97 1013.6
20260903044529 18 167 4.8 8.0 0.00 1.02 0.00 97 1013.4
20260903043008 18 170 1.6 8.0 0.00 1.02 0.00 97 1013.6
20260903041518 18 169 3.2 9.7 0.00 1.02 0.00 97 1013.9
20260903040020 18 242 0.0 4.8 0.00 1.02 0.00 97 1014.2
20260903034533 18 257 3.2 11.3 0.00 1.02 1.02 97 1014.4
20260903033032 19 227 4.8 11.3 0.00 1.02 1.02 97 1014.0
20260903031512 19 208 0.0 6.4 0.00 1.02 1.02 97 1013.8
20260903030016 20 174 1.6 6.4 0.00 1.02 1.02 97 1013.3
20260903024523 20 169 3.2 8.0 0.03 1.02 1.02 97 1013.2
20260903023030 20 141 9.7 16.1 0.08 1.02 1.02 97 1012.4
20260903021532 20 171 11.3 19.3 0.13 1.02 1.02 97 1013.0
20260903020045 20 161 6.4 14.5 0.15 1.02 1.02 97 1014.0
20260903014517 20 196 3.2 16.1 0.18 0.99 0.99 97 1014.1
20260903013028 20 158 9.7 16.1 0.20 0.94 0.94 97 1014.1
20260903011530 20 186 6.4 14.5 0.20 0.89 0.89 96 1013.9
20260903010032 20 190 8.0 22.5 0.20 0.86 0.86 96 1013.3
20260903004516 20 157 6.4 14.5 0.15 0.81 0.81 95 1013.7
20260903003028 21 201 4.8 12.9 0.08 0.74 0.74 94 1014.5
20260903001533 21 159 3.2 17.7 0.03 0.69 0.69 92 1014.5
20260903000040 21 170 8.0 16.1 0.00 0.66 0.66 90 1013.9
20260902234512 22 171 4.8 14.5 0.00 0.66 0.66 89 1014.1
20260902233020 22 153 3.2 11.3 0.00 0.66 0.66 89 1013.9
20260902231534 22 170 6.4 11.3 0.00 0.66 0.66 88 1013.9
20260902230029 22 139 4.8 16.1 0.00 0.66 0.66 87 1013.7
20260902224531 22 142 8.0 19.3 0.00 0.66 0.66 87 1013.1
20260902223019 23 167 8.0 19.3 0.00 0.66 0.66 85 1013.4
20260902221539 23 179 8.0 16.1 0.00 0.66 0.66 84 1013.4
20260902220027 23 162 11.3 32.2 0.00 0.66 0.66 84 1012.6
20260902214533 24 165 9.7 25.7 0.00 0.66 0.66 83 1013.5
20260902213035 24 173 8.0 17.7 0.00 0.66 0.66 82 1014.2
20260902211523 25 178 1.6 8.0 0.00 0.66 0.66 83 1015.5
20260902210030 25 191 3.2 9.7 0.00 0.66 0.66 80 1015.9
20260902204531 25 173 3.2 12.9 0.00 0.66 0.66 78 1015.7
20260902203030 25 146 3.2 11.3 0.00 0.66 0.66 78 1015.6
20260902201519 25 178 3.2 14.5 0.00 0.66 0.66 77 1015.4
20260902200027 25 163 9.7 17.7 0.00 0.66 0.66 76 1015.2
20260902194505 25 153 6.4 17.7 0.00 0.66 0.66 78 1015.1
20260902193010 25 192 9.7 19.3 0.00 0.66 0.66 78 1015.3
20260902191518 24 162 4.8 19.3 0.00 0.66 0.66 78 1015.6
20260902190021 25 179 8.0 20.9 0.00 0.66 0.66 78 1015.7
20260902184530 24 171 8.0 24.1 0.00 0.66 0.66 80 1015.6
20260902183009 24 132 9.7 22.5 0.00 0.66 0.66 79 1016.0
20260902181514 24 221 8.0 24.1 0.00 0.66 0.66 80 1016.1
20260902180020 24 202 6.4 22.5 0.00 0.66 0.66 81 1015.9
20260902174531 23 185 9.7 20.9 0.00 0.66 0.66 81 1015.8
20260902173006 23 198 9.7 19.3 0.00 0.66 0.66 82 1015.9
20260902171513 22 149 9.7 19.3 0.00 0.66 0.66 84 1016.1
20260902170016 22 159 9.7 20.9 0.00 0.66 0.66 86 1016.1
20260902164522 21 202 8.0 19.3 0.00 0.66 0.66 88 1016.2
20260902163028 21 157 11.3 25.7 0.03 0.66 0.66 93 1015.8
20260902161507 20 161 6.4 19.3 0.13 0.66 0.66 98 1016.3
20260902160012 18 136 9.7 19.3 0.20 0.66 0.66 98 1016.4
20260902154533 18 188 4.8 19.3 0.30 0.66 0.66 98 1016.3
20260902153026 18 209 6.4 22.5 0.38 0.64 0.64 98 1016.2
20260902151535 18 217 11.3 29.0 0.36 0.53 0.53 98 1016.3
20260902150010 18 253 8.0 22.5 0.36 0.46 0.46 98 1016.5
20260902144512 18 247 3.2 19.3 0.25 0.38 0.36 98 1018.1
20260902143025 18 220 3.2 14.5 0.18 0.28 0.25 98 1018.0
20260902141535 17 261 6.4 17.7 0.18 0.20 0.18 98 1017.9
20260902140030 17 171 4.8 9.7 0.10 0.13 0.10 97 1017.8
20260902134512 17 173 6.4 16.1 0.10 0.13 0.10 97 1017.3
20260902133020 18 153 8.0 14.5 0.08 0.10 0.08 97 1017.2
20260902131527 18 182 3.2 11.3 0.00 0.03 0.00 96 1018.0
20260902130033 18 154 6.4 11.3 0.00 0.03 0.00 96 1017.9
20260902124531 18 162 1.6 8.0 0.00 0.03 0.00 97 1017.8
20260902123026 18 111 4.8 12.9 0.00 0.03 0.00 97 1018.0
20260902121523 18 128 4.8 14.5 0.00 0.03 0.00 97 1017.8
20260902120028 18 166 4.8 16.1 0.00 0.03 0.00 97 1017.0
20260902114534 18 138 4.8 19.3 0.00 0.03 0.00 98 1017.1
20260902113030 18 153 8.0 16.1 0.00 0.03 0.00 98 1017.1
20260902111534 18 141 9.7 20.9 0.00 0.03 0.00 98 1016.3
20260902110005 18 165 9.7 16.1 0.00 0.03 0.00 98 1016.4
20260902104537 17 146 8.0 19.3 0.00 0.03 0.00 98 1016.3
20260902103017 18 178 8.0 16.1 0.00 0.03 0.00 98 1016.7
20260902101518 17 165 6.4 16.1 0.00 0.03 0.00 98 1017.1
20260902100003 17 180 4.8 14.5 0.00 0.03 0.00 98 1017.2
20260902094503 17 137 8.0 16.1 0.00 0.03 0.00 98 1017.1
20260902093024 17 148 6.4 14.5 0.00 0.03 0.00 98 1017.3
20260902091513 17 149 6.4 14.5 0.00 0.05 0.00 98 1017.2
20260902090020 17 152 6.4 16.1 0.00 0.08 0.00 98 1017.2
20260902084504 17 107 4.8 12.9 0.00 0.08 0.00 98 1017.4
20260902083005 17 134 6.4 14.5 0.00 0.08 0.00 98 1017.5
20260902081510 17 132 4.8 12.9 0.00 0.08 0.00 97 1017.3
20260902080024 17 139 4.8 14.5 0.00 0.08 0.00 97 1017.4
20260902074524 17 157 4.8 14.5 0.00 0.10 0.00 97 1017.4
20260902073016 17 161 6.4 16.1 0.00 0.10 0.00 97 1017.3
20260902071512 17 149 4.8 14.5 0.00 0.13 0.00 98 1017.1
20260902070027 17 160 8.0 16.1 0.00 0.28 0.00 97 1017.2
20260902064524 17 111 6.4 12.9 0.00 0.33 0.00 98 1017.3
20260902063027 17 178 4.8 12.9 0.00 0.33 0.00 97 1017.3
20260902061506 17 142 4.8 12.9 0.00 0.33 0.00 97 1017.3